TimeCET,TemperatureF,Dew PointF,Humidity,Sea Level PressureIn,VisibilityMPH,Wind Direction,Wind SpeedMPH,Gust SpeedMPH,PrecipitationIn,Events,Conditions,WindDirDegrees,DateUTC
12:00 AM,21.2,15.8,80,29.89,6.2,ENE,10.4,-,N/A,Snow,Light Snow,60,2012-12-07 23:00:00
12:30 AM,21.2,15.8,80,29.89,6.2,ENE,13.8,-,N/A,Snow,Light Snow,60,2012-12-07 23:30:00
1:00 AM,22,15,64,29.97,9,ENE,13.4,,,Snow,Light Snow,60,2012-12-08 00:00:00
1:00 AM,21.2,15.8,80,29.89,6.2,ENE,12.7,-,N/A,Snow,Light Snow,60,2012-12-08 00:00:00
1:30 AM,21.2,15.8,80,29.89,6.2,ENE,15.0,-,N/A,Snow,Light Snow,60,2012-12-08 00:30:00
2:00 AM,21.2,15.8,80,29.92,6.2,ENE,15.0,-,N/A,Snow,Light Snow,70,2012-12-08 01:00:00
2:30 AM,21.2,15.8,80,29.92,6.2,East,11.5,-,N/A,Snow,Light Snow,80,2012-12-08 01:30:00
3:00 AM,19.4,14.0,80,29.92,6.2,ENE,8.1,-,N/A,Snow,Light Snow,70,2012-12-08 02:00:00
3:30 AM,19.4,14.0,80,29.92,-9999.0,ENE,9.2,-,N/A,,Clear,60,2012-12-08 02:30:00
4:00 AM,19.4,14.0,80,29.92,-9999.0,NE,9.2,-,N/A,,Clear,50,2012-12-08 03:00:00
4:30 AM,17.6,14.0,86,29.92,-9999.0,NE,5.8,-,N/A,,Clear,40,2012-12-08 03:30:00
5:00 AM,17.6,12.2,79,29.95,-9999.0,NE,4.6,-,N/A,,Clear,40,2012-12-08 04:00:00
5:30 AM,15.8,12.2,86,29.95,-9999.0,NE,8.1,-,N/A,,Clear,50,2012-12-08 04:30:00
6:00 AM,15.8,12.2,86,29.95,-9999.0,ENE,9.2,-,N/A,,Clear,60,2012-12-08 05:00:00
6:30 AM,15.8,12.2,86,29.95,6.2,ENE,8.1,-,N/A,,Scattered Clouds,60,2012-12-08 05:30:00
7:00 AM,17,10,64,30.03,7,Calm,Calm,,,,Partly Cloudy,,2012-12-08 06:00:00
7:00 AM,15.8,12.2,86,29.95,6.2,Variable,1.2,-,N/A,,Scattered Clouds,0,2012-12-08 06:00:00
7:30 AM,15.8,12.2,86,29.95,6.2,Variable,1.2,-,N/A,,Partly Cloudy,0,2012-12-08 06:30:00
8:00 AM,15.8,12.2,86,29.98,6.2,Variable,1.2,-,N/A,,Partly Cloudy,0,2012-12-08 07:00:00
8:30 AM,15.8,12.2,86,29.98,-9999.0,Variable,2.3,-,N/A,,Clear,0,2012-12-08 07:30:00
9:00 AM,15.8,12.2,86,30.01,-9999.0,South,4.6,-,N/A,,Clear,170,2012-12-08 08:00:00
9:30 AM,19.4,12.2,74,30.04,-9999.0,Calm,Calm,-,N/A,,Clear,0,2012-12-08 08:30:00
10:00 AM,19.4,12.2,74,30.04,-9999.0,NE,4.6,-,N/A,,Clear,50,2012-12-08 09:00:00
10:30 AM,21.2,14.0,74,30.04,-9999.0,NE,4.6,-,N/A,,Clear,40,2012-12-08 09:30:00
11:00 AM,23.0,15.8,74,30.04,-9999.0,NE,3.5,-,N/A,,Clear,50,2012-12-08 10:00:00
11:30 AM,23.0,15.8,74,30.04,-9999.0,ESE,6.9,-,N/A,,Clear,110,2012-12-08 10:30:00
12:00 PM,24.8,15.8,69,30.04,-9999.0,SSE,4.6,-,N/A,,Clear,150,2012-12-08 11:00:00
12:30 PM,24.8,15.8,69,30.06,-9999.0,ESE,5.8,-,N/A,,Clear,110,2012-12-08 11:30:00
1:00 PM,26,13,46,30.12,9,ENE,4.5,,,,Clear,70,2012-12-08 12:00:00
1:00 PM,24.8,15.8,69,30.06,-9999.0,ENE,2.3,-,N/A,,Clear,70,2012-12-08 12:00:00
1:30 PM,26.6,15.8,64,30.04,-9999.0,ENE,3.5,-,N/A,,Clear,60,2012-12-08 12:30:00
2:00 PM,26.6,15.8,64,30.04,-9999.0,NE,3.5,-,N/A,,Clear,50,2012-12-08 13:00:00
2:30 PM,28.4,15.8,59,30.04,-9999.0,NNW,6.9,-,N/A,,Clear,330,2012-12-08 13:30:00
3:00 PM,28.4,15.8,59,30.06,-9999.0,NNW,10.4,-,N/A,,Clear,330,2012-12-08 14:00:00
3:30 PM,26.6,15.8,64,30.06,-9999.0,North,8.1,-,N/A,,Clear,350,2012-12-08 14:30:00
4:00 PM,26.6,15.8,64,30.06,-9999.0,NNW,8.1,-,N/A,,Clear,330,2012-12-08 15:00:00
4:30 PM,24.8,15.8,69,30.09,-9999.0,NNW,10.4,-,N/A,,Clear,330,2012-12-08 15:30:00
5:00 PM,24.8,15.8,69,30.09,-9999.0,NNW,11.5,-,N/A,,Clear,340,2012-12-08 16:00:00
5:30 PM,23.0,15.8,74,30.09,-9999.0,North,10.4,-,N/A,,Clear,350,2012-12-08 16:30:00
6:00 PM,23.0,15.8,74,30.12,-9999.0,NNE,6.9,-,N/A,,Clear,20,2012-12-08 17:00:00
6:30 PM,23.0,14.0,68,30.12,-9999.0,NNW,12.7,-,N/A,,Clear,340,2012-12-08 17:30:00
7:00 PM,22,13,55,30.22,9,North,11.2,,,,Clear,350,2012-12-08 18:00:00
7:00 PM,21.2,14.0,74,30.12,-9999.0,NNW,11.5,-,N/A,,Clear,340,2012-12-08 18:00:00
7:30 PM,21.2,14.0,74,30.15,-9999.0,NNW,11.5,-,N/A,,Clear,340,2012-12-08 18:30:00
8:00 PM,21.2,14.0,74,30.15,-9999.0,NNW,9.2,-,N/A,,Clear,340,2012-12-08 19:00:00
8:30 PM,19.4,12.2,74,30.15,-9999.0,Variable,2.3,-,N/A,,Clear,0,2012-12-08 19:30:00
9:00 PM,19.4,12.2,74,30.18,-9999.0,NNW,4.6,-,N/A,,Clear,330,2012-12-08 20:00:00
9:30 PM,17.6,12.2,79,30.18,-9999.0,West,3.5,-,N/A,,Clear,280,2012-12-08 20:30:00
10:00 PM,17.6,12.2,79,30.18,-9999.0,WNW,5.8,-,N/A,,Clear,300,2012-12-08 21:00:00
10:30 PM,15.8,10.4,79,30.18,-9999.0,Variable,1.2,-,N/A,,Clear,0,2012-12-08 21:30:00
11:00 PM,17.6,12.2,79,30.18,-9999.0,Variable,2.3,-,N/A,,Clear,0,2012-12-08 22:00:00
11:30 PM,15.8,12.2,86,30.18,-9999.0,NW,4.6,-,N/A,,Clear,320,2012-12-08 22:30:00